Location: Ocean City
(38.3360°N, 75.0850°W)
Time: 22:21:31
(UTC-04:00)

BEESAT 2 - Pass Details

Date: 27 May 2019
Orbit: 502 x 528 km, 64.9° (Epoch: 24 June)

Event Time Altitude Azimuth Distance (km) Brightness Sun altitude
Rises 03:40:31 0° 315° (NW) 2,669 ? -19.2°
Reaches altitude 10° 03:43:02 10° 300° (WNW) 1,776 ? -18.9°
Enters shadow 03:43:48 14° 292° (WNW) 1,547 ? -18.8°
